Beaufort MCAS, SC

4:34 PM EDT on April 25, 2018 (GMT -0400)
Beaufort Marine Corps Air Station

Weather History for KNBC - November, 2011

Change the Weather History Date:

Monday, November 14, 2011

  Actual Average Record
Temperature  
Mean Temperature 62 °F -  
Max Temperature 77 °F 67 °F 83 °F (1955)
Min Temperature 48 °F 44 °F 28 °F (1968)
Degree Days  
Heating Degree Days 2    
Growing Degree Days 12 (Base 50)    
Moisture  
Dew Point 53 °F    
Average Humidity 82    
Maximum Humidity 100    
Minimum Humidity 48    
Precipitation  
Precipitation 0.01 in - - ()
Sea Level Pressure  
Sea Level Pressure 30.16 in    
Wind  
Wind Speed 1 mph (SE)    
Max Wind Speed 12 mph    
Max Gust Speed 18 mph    
Visibility 7 miles    
Events Fog    
Averages and records for this station are not official NWS values.
T = Trace of Precipitation, MM = Missing Value Source: NWS Daily Summary

Daily Weather History Graph

Daily Weather History Graph

Search for Another Location

Airport or City:

Astronomy

Nov. 14, 2011 Rise Set
Actual Time 6:51 AM EST 5:22 PM EST
Civil Twilight 6:25 AM EST 5:48 PM EST
Nautical Twilight 5:55 AM EST 6:18 PM EST
Astronomical Twilight 5:26 AM EST 6:47 PM EST
Moon 8:32 PM EST (11/14) 10:04 AM EST (11/14)
Length of Visible Light 11h 23m
Length of Day
10h 31m
Waning Gibbous, 87% of the Moon is Illuminated
Nov 14
Waning Gibbous
Nov 18
Last Quarter
Nov 25
New
Dec 2
First Quarter
Dec 10
Full

Hourly Weather History & Observations

Time (EST) Temp. Dew Point Humidity Pressure Visibility Wind Dir Wind Speed Gust Speed Precip Events Conditions
12:56 AM 54.0 °F 52.0 °F 93% 30.19 in 10.0 mi Calm Calm - N/A   Clear
1:56 AM 54.0 °F 52.0 °F 93% 30.18 in 10.0 mi Calm Calm - N/A   Clear
2:22 AM 51.8 °F 50.0 °F 94% 30.18 in 1.5 mi Calm Calm - N/A   Partly Cloudy
2:29 AM 51.8 °F 50.0 °F 94% 30.18 in 0.8 mi Calm Calm - N/A   Mist
2:34 AM 51.8 °F 50.0 °F 94% 30.18 in 1.0 mi Calm Calm - N/A   Clear
2:40 AM 51.8 °F 48.2 °F 88% 30.18 in 2.0 mi Calm Calm - N/A   Clear
2:48 AM 51.8 °F 50.0 °F 94% 30.18 in 10.0 mi Calm Calm - N/A   Clear
2:56 AM 52.0 °F 50.0 °F 93% 30.18 in 10.0 mi Calm Calm - N/A   Clear
3:35 AM 51.8 °F 48.2 °F 88% 30.17 in 1.5 mi Calm Calm - N/A   Clear
3:38 AM 51.8 °F 48.2 °F 88% 30.17 in 0.8 mi Calm Calm - N/A   Clear
3:45 AM 51.8 °F 50.0 °F 94% 30.17 in 1.5 mi Calm Calm - N/A   Clear
3:47 AM 51.8 °F 50.0 °F 94% 30.17 in 3.0 mi Calm Calm - N/A   Clear
3:56 AM 51.1 °F 48.9 °F 92% 30.18 in 1.5 mi Calm Calm - N/A   Clear
4:02 AM 51.8 °F 48.2 °F 88% 30.17 in 2.5 mi Calm Calm - N/A   Partly Cloudy
4:09 AM 50.0 °F 48.2 °F 94% 30.17 in 6.0 mi Calm Calm - N/A   Partly Cloudy
4:15 AM 48.2 °F 48.2 °F 100% 30.17 in 1.8 mi Calm Calm - N/A   Partly Cloudy
4:22 AM 51.8 °F 48.2 °F 88% 30.17 in 1.2 mi Calm Calm - N/A   Partly Cloudy
4:32 AM 51.8 °F 48.2 °F 88% 30.17 in 3.0 mi Calm Calm - N/A   Partly Cloudy
4:56 AM 52.0 °F 50.0 °F 93% 30.18 in 10.0 mi Calm Calm - N/A   Clear
5:11 AM 51.8 °F 48.2 °F 88% 30.18 in 1.8 mi Calm Calm - N/A   Clear
5:20 AM 51.8 °F 50.0 °F 94% 30.18 in 3.0 mi Calm Calm - N/A   Clear
5:56 AM 52.0 °F 50.0 °F 93% 30.18 in 10.0 mi Calm Calm - N/A   Clear
6:56 AM 54.0 °F 50.0 °F 86% 30.19 in 10.0 mi Calm Calm - N/A   Clear
7:56 AM 55.9 °F 54.0 °F 93% 30.20 in 3.0 mi Calm Calm - N/A Fog Shallow Fog
8:56 AM 64.0 °F 57.9 °F 80% 30.21 in 10.0 mi Calm Calm - N/A Fog Shallow Fog
9:56 AM 70.0 °F 59.0 °F 68% 30.22 in 10.0 mi SSE 4.6 mph - N/A   Clear
10:56 AM 75.0 °F 57.0 °F 53% 30.21 in 10.0 mi South 5.8 mph - N/A   Clear
11:56 AM 75.9 °F 57.9 °F 54% 30.17 in 10.0 mi SSE 6.9 mph - 0.01 in   Partly Cloudy
12:56 PM 75.0 °F 57.0 °F 53% 30.14 in 10.0 mi SE 11.5 mph 18.4 mph N/A   Partly Cloudy
1:56 PM 77.0 °F 55.9 °F 48% 30.11 in 10.0 mi SSE 6.9 mph 17.3 mph N/A   Clear
2:56 PM 77.0 °F 55.9 °F 48% 30.10 in 10.0 mi SSE 9.2 mph - N/A   Scattered Clouds
3:56 PM 73.0 °F 55.9 °F 55% 30.09 in 10.0 mi SE 10.4 mph 17.3 mph N/A   Scattered Clouds
4:56 PM 71.1 °F 55.9 °F 59% 30.09 in 10.0 mi SSE 5.8 mph - N/A   Clear
5:56 PM 64.9 °F 57.0 °F 75% 30.09 in 10.0 mi SE 4.6 mph - N/A   Clear
6:56 PM 63.0 °F 57.0 °F 81% 30.10 in 10.0 mi SE 5.8 mph - N/A   Clear
7:56 PM 63.0 °F 57.9 °F 84% 30.11 in 10.0 mi ESE 3.5 mph - N/A   Clear
8:56 PM 63.0 °F 59.0 °F 87% 30.10 in 10.0 mi ESE 5.8 mph - N/A   Clear
9:56 PM 64.9 °F 59.0 °F 81% 30.10 in 10.0 mi SE 5.8 mph - N/A   Clear
10:56 PM 66.0 °F 60.1 °F 81% 30.09 in 10.0 mi SSE 8.1 mph - N/A   Clear
11:56 PM 64.9 °F 60.1 °F 84% 30.09 in 10.0 mi SSE 5.8 mph - N/A   Clear